weather.gov     
National Weather Service

Weather Roundup
NWS Homepage
This page is being discontinued on March 12, 2014.
The same data is available at this site. Please update your bookmarks.
Thank you, and we apologize for the inconvenience.
Please send an email to SR-SRH.Webmaster@noaa.gov with any concerns.


Current Version
Previous Version:    01  02  03  04  05  06  07  08  09  10  11  12  13  14  15  16  17  18  19  20  21  22  23  24  25  26  27  28  29  30  
   31  32  33  34  35  36  37  38  39  40  41  42  43  44  45  46  47  48  49  50  51  52  53  54  55  56  57  58  59  60  
[Printable]
180
NZUS93 KARX 221510
HRRWXR

CURRENT HOURLY OBSERVATIONS ACROSS
MUCH OF THE UPPER MISSISSIPPI VALLEY
NATIONAL WEATHER SERVICE LA CROSSE WI
900 AM CST SAT NOV 22 2014


...SOUTHEAST MINNESOTA...


CITY           SKY/WX    TMP DP  RH WIND       PRES   REMARKS
ROCHESTER      FOG       34  34 100 S17       29.79F VSB 1/4 WCI  23
ROCHESTER/MAYO CLOUDY    36  35  98 SW7       29.80S VSB 1   WCI  30
WINONA         CLOUDY    36  34  93 CALM      29.83F FOG
AUSTIN         DRZL/FOG  34  34 100 S10       29.81S VSB<1/4 WCI  26
ALBERT LEA     FOG       36  36 100 S3        29.80S VSB 1/2
DODGE CENTER   FOG       36  36 100 SW17      29.78F VSB 1/2 WCI  25
PRESTON        FOG       33  33  99 SW10      29.82S VSB<1/4 WCI  25
OWATONNA       FOG       36  34  93 SW10G18   29.79F VSB 1   WCI  28
FARIBAULT      FOG       36  34  93 S7        29.79S VSB 1   WCI  30
$$

...ELSEWHERE IN MINNESOTA...


CITY           SKY/WX    TMP DP  RH WIND       PRES   REMARKS
MINNEAPOLIS    CLOUDY    34  33  96 SW10      29.77F FOG     WCI  26
INTNL FALLS    CLOUDY    32  27  81 SW5       29.61S WCI  27
DULUTH         PTSUNNY   29  26  89 SW8       29.68S FOG     WCI  21
RED WING         N/A     36  34  93 SW9       29.79F FOG     WCI  29
REDWOOD FALLS  FOG       33  32  96 S12       29.72F VSB 1/2 WCI  24
MANKATO        CLOUDY    36  30  80 S9G16     29.76F WCI  29
WORTHINGTON    CLOUDY    34  34 100 SW14      29.76R VSB<1/4 WCI  24
FAIRMONT       CLOUDY    36  32  87 SW10      29.78F WCI  28
$$

...SOUTHWEST WISCONSIN...


CITY           SKY/WX    TMP DP  RH WIND       PRES   REMARKS
LA CROSSE      CLOUDY    36  34  92 S8        29.84F FOG     WCI  30
PRAIRIE DU CHI CLOUDY    37  34  92 SE5       29.88F FOG     WCI  33
BOSCOBEL       CLOUDY    37  35  92 S8        29.90F FOG     WCI  31
LONE ROCK      CLOUDY    40  34  79 S6        29.90F HAZE
PLATTEVILLE    CLOUDY    35  34  96 S10       29.91F VSB<1/4 WCI  27
FORT MC COY    CLOUDY    35  35  98 S5        29.85F FOG     WCI  31
CAMP DOUGLAS   CLOUDY    36  36 100 VRB5      29.84F FOG     WCI  32
VIROQUA        CLOUDY   N/A N/A N/A S10       29.84F VSB<1/4
WIS DELLS      CLOUDY    35  34  96 SW8       29.87F FOG     WCI  28
$$

...ELSEWHERE IN WISCONSIN...


CITY           SKY/WX    TMP DP  RH WIND       PRES   REMARKS
MILWAUKEE      FOG       36  34  92 SW12      29.96F VSB 1   WCI  28
MADISON        FOG       35  34  96 S13       29.92F VSB 1/2 WCI  26
GREEN BAY      CLOUDY    35  32  88 SW12      29.87F FOG     WCI  27
EAU CLAIRE     CLOUDY    35  32  88 SW10      29.79F FOG     WCI  27
BLACK RVR FLS  FOG       35  35 100 S6        29.83F VSB 1/2 WCI  30
MEDFORD        FOG       32  31  98 SW8       29.79F VSB 3/4 WCI  25
WAUSAU         FOG       32  31  96 SW6       29.80F VSB 1   WCI  26
WIS RAPIDS     FOG       33  31  92 S7        29.86F VSB 1/2 WCI  27
MARSHFIELD     FOG       34  33  96 SW8       29.81F VSB 1/2 WCI  27
RICE LAKE      CLOUDY    35  32  90 S6        29.78S FOG     WCI  30
$$

...NORTHEAST IOWA...


CITY           SKY/WX    TMP DP  RH WIND       PRES   REMARKS
DECORAH        FOG       36  36 100 S7        29.84F VSB 1/2 WCI  30
MASON CITY     FOG       34  34 100 S8        29.83F VSB 1/4 WCI  27
CHARLES CITY   FOG       36  36 100 S8        29.84F VSB<1/4 WCI  29
OELWEIN        FOG       34  34 100 S10       29.86F VSB<1/4 WCI  26
$$

...ELSEWHERE IN IOWA...


CITY           SKY/WX    TMP DP  RH WIND       PRES   REMARKS
DES MOINES     CLOUDY    43  40  89 S13       29.88F FOG
IOWA CITY      FOG       42  42 100 S10       29.94F VSB 1/4
FORT DODGE     CLOUDY    36  36 100 S10       29.82F VSB 1/2 WCI  28
$$

...NORTHERN ILLINOIS...


CITY           SKY/WX    TMP DP  RH WIND       PRES   REMARKS
CHICAGO-OHARE  CLOUDY    38  36  92 SW10      30.00F FOG     WCI  31
CHICAGO-MIDWAY CLOUDY    40  36  86 S9        30.02F WCI  34
MOLINE         CLOUDY    45  41  86 S9        29.94F FOG
ROCKFORD       DRZL/FOG  37  36  96 S9        29.98F VSB 1/2 WCI  30
PEORIA         CLOUDY    44  39  82 S13       30.02F HAZE
$$

NOTE: "FAIR" INDICATES FEW OR NO CLOUDS BELOW 12,000 FEET WITH NO
SIGNIFICANT WEATHER AND/OR OBSTRUCTIONS TO VISIBILITY. WIND
SPEEDS ARE IN MILES-PER-HOUR.




U.S. Dept. of Commerce
NOAA National Weather Service
1325 East West Highway
Silver Spring, MD 20910
E-mail: w-nws.webmaster@noaa.gov
Page last modified: May 16, 2007
NATIONAL WEATHER SERVICE: for Safety, for Work, for Fun - FOR LIFE